This is the latest recevied weather packets stored in our database for station/object KB0BDN-13. If no packets are shown the sender has not sent any weather packets the latest 10 day(s).
| Time | Temp. | Humidity | Pressure | Rain* | Wind** | Luminosity | Snow |
|---|---|---|---|---|---|---|---|
| 1777920427 | 5.56° C | 72% | - | 0 mm | - | - | - |
| 1777919527 | 6.11° C | 69% | - | 0 mm | - | - | - |
| 1777918627 | 5.56° C | 73% | - | 0 mm | - | - | - |
| 1777917727 | 5.56° C | 76% | - | 0 mm | - | - | - |
| 1777916827 | 5.56° C | 79% | - | 0 mm | - | - | - |
| 1777915927 | 6.11° C | 79% | - | 0 mm | - | - | - |
| 1777915027 | 6.11° C | 77% | - | 0 mm | - | - | - |
| 1777914127 | 5.56° C | 83% | - | 0 mm | - | - | - |
| 1777913227 | 6.11° C | 84% | - | 0 mm | - | - | - |
| 1777912327 | 6.11° C | 83% | - | 0 mm | - | - | - |
| 1777911427 | 5.56° C | 87% | - | 0 mm | - | - | - |
| 1777910527 | 5.56° C | 90% | - | 0 mm | - | - | - |
| 1777909626 | 6.11° C | 92% | - | 0.25 mm | - | - | - |
| 1777908725 | 5.56° C | 94% | - | 0.25 mm | - | - | - |
| 1777907824 | 5.56° C | 95% | - | 1.52 mm | - | - | - |
| 1777906924 | 5.56° C | 96% | - | 1.52 mm | - | - | - |
| 1777906024 | 5° C | 95% | - | 1.78 mm | - | - | - |
| 1777905124 | 5° C | 95% | - | 1.52 mm | - | - | - |
| 1777904224 | 5° C | 94% | - | 1.52 mm | - | - | - |
| 1777903324 | 5.56° C | 95% | - | 0.51 mm | - | - | - |
| 1777902424 | 6.11° C | 96% | - | 0 mm | - | - | - |
| 1777901524 | 5.56° C | 96% | - | 0 mm | - | - | - |
| 1777900623 | 5.56° C | 96% | - | 0.25 mm | - | - | - |
| 1777899723 | 5.56° C | 95% | - | 0.25 mm | - | - | - |
| 1777898823 | 5° C | 95% | - | 1.02 mm | - | - | - |
* Rain latest hour (hover to see other rain measurements)
** Current wind speed in m/s (hover to see current wind gust speed)